Location: Boiro
(42.6475°N, 8.8834°W)
Time: 17:40:58
(UTC+01:00)

Tiros 1 - Pass Details

Date: 07 December 2021
Orbit: 630 x 663 km, 48.4° (Epoch: 20 January)

Event Time Altitude Azimuth Distance (km) Brightness Sun altitude
Rises 00:00:05 0° 296° (WNW) 2,946 - -63.0°
Reaches altitude 10° 00:02:25 10° 297° (WNW) 2,041 - -63.4°
Maximum altitude 00:07:08 79° 25° (NNE) 665 - -64.0°
Drops below altitude 10° 00:11:53 10° 112° (ESE) 2,056 - -64.6°
Sets 00:14:14 0° 113° (ESE) 2,971 - -64.9°
